Regional Weather Roundup
Issued by NWS Nashville, TN

Home | Current Version | Previous Version | Text Only | Print | Product List | Glossary On
Versions: 1 2 3 4 5 6 7 8 9 10 11 12 13 14 15 16 17 18 19 20 21 22 23 24 25 26 27 28 29 30 31 32 33 34 35 36 37 38 39 40 41 42 43 44 45 46 47 48 49 50
745
ASUS44 KOHX 290910
RWROHX
MIDDLE TENNESSEE HOURLY WEATHER ROUNDUP
NATIONAL WEATHER SERVICE NASHVILLE TN
400 AM CDT FRI APR 29 2016

NOTE: "FAIR" INDICATES FEW OR NO CLOUDS BELOW 12,000 FEET WITH
NO SIGNIFICANT WEATHER AND/OR OBSTRUCTIONS TO VISIBILITY.

* THESE REPORTS ARE NOT UNDER NWS QUALITY CONTROL AND MAY NOT
  REPORT WEATHER SUCH AS PRECIPITATION AND FOG.


TNZ005>011-023>034-057-059-062>066-078-080-291000
...NORTHERN MIDDLE TENNESSEE...

CITY           SKY/WX    TMP DP  RH WIND       PRES   REMARKS
CLARKSVILLE    CLOUDY    54  51  90 CALM      30.00R
CROSSVILLE     CLEAR     63  48  58 N5        30.04S
NASHVILLE      CLOUDY    56  53  90 S5        30.00R
SMYRNA         CLOUDY    54  54 100 CALM      30.01S FOG
SPARTA         CLEAR     48  48 100 CALM      30.01S
$$
TNZ056-058-060-061-075>077-079-093>097-291000
...SOUTHERN MIDDLE TENNESSEE...

CITY           SKY/WX    TMP DP  RH WIND       PRES   REMARKS
COLUMBIA       CLEAR    N/A N/A N/A CALM      29.98S
FAYETTEVILLE   CLEAR     63  54  72 NE7       30.00S
MCMINNVILLE    CLEAR     54  54 100 CALM      30.02S
SHELBYVILLE    CLEAR     55  54  94 SE3       30.01S
TULLAHOMA      CLEAR     55  55 100 CALM      30.02R
WINCHESTER     CLEAR     52  50  93 CALM      30.02R
$$


...KEY TO REMARKS...
VSB - VISIBILITY IN MILES
WCI - WIND CHILL INDEX
HX  - HEAT INDEX





USA.gov is the U.S. government's official web portal to all federal, state and local government web resources and services.